Terminal Aerodrome Forecast
Issued by NWS Mt. Holly, NJ

Home | Current Version | Previous Version | Text Only | Print | Product List | Glossary On
Versions: 1 2 3 4 5 6 7 8 9 10 11 12 13 14 15 16 17 18 19 20 21 22 23 24 25 26 27 28 29 30 31 32 33 34 35 36 37 38 39 40 41 42 43 44 45 46 47 48 49 50
000
FTAK31 PANC 011744
TAFABE
TAF
PABE 011744Z 0118/0218 21017G25KT P6SM OVC015
      TEMPO 0118/0122 5SM -RA BR BKN008
     FM012200 22014G24KT 5SM BR BKN008 OVC015
     FM020900 23014KT P6SM OVC007=

USA.gov is the U.S. government's official web portal to all federal, state and local government web resources and services.